Regional Weather Roundup
Issued by NWS Glasgow, MT

Current Version | Previous Version | Text Only | Print | Product List | Glossary On
Versions: 1 2 3 4 5 6 7 8 9 10 11 12 13 14 15 16 17 18 19 20 21 22 23 24 25 26 27 28 29 30 31 32 33 34 35 36 37 38 39 40 41 42 43 44 45 46 47 48 49 50
000
ASUS45 KGGW 230315
RWRGGW
HOURLY REGIONAL WEATHER ROUNDUP FOR NORTHEAST MONTANA
NATIONAL WEATHER SERVICE GLASGOW MONTANA
900 PM MDT FRI SEP 22 2023

NOTE: "FAIR" INDICATES FEW OR NO CLOUDS BELOW 12,000 FEET WITH NO
SIGNIFICANT WEATHER AND/OR OBSTRUCTIONS TO VISISBILITY.

NORTHEAST MONTANA


CITY           SKY/WX    TMP DP  RH WIND       PRES   REMARKS
GLASGOW        CLOUDY    60  52  74 E15       29.95S
WOLF POINT     CLOUDY    58  55  90 E12       29.96F
JORDAN           N/A     58  55  90 NE8       29.91S
SIDNEY         LGT RAIN  59  57  94 E6        29.97S
GLENDIVE       RAIN      57  57 100 E5        29.95R FOG
MALTA            N/A     59  52  77 E3          N/A

FORT PECK REPORTS


CITY           SKY/WX    TMP DP  RH WIND       PRES   REMARKS
FORT PECK        N/A     56  55  97 NE18G30     N/A
THE PINES        N/A     56  52  86 NE12G23     N/A

SOUTHEAST MONTANA


CITY           SKY/WX    TMP DP  RH WIND       PRES   REMARKS
BILLINGS       MOCLDY    55  50  83 S7        29.93S
MILES CITY     CLOUDY    55  55 100 NE8       29.92R
BAKER          CLOUDY    57  56  96 E8        29.94S
LIVINGSTON     LGT RAIN  47  44  90 SW16G29   30.01R

CENTRAL MONTANA


CITY           SKY/WX    TMP DP  RH WIND       PRES   REMARKS
HAVRE          CLOUDY    60  55  83 E8        29.96R
LEWISTOWN      LGT RAIN  51  50  96 NW5       29.95R
GREAT FALLS    LGT RAIN  53  53 100 W5        29.98R
CUT BANK         N/A     49  48  97 NW10      30.01S
HELENA         LGT RAIN  52  49  89 W5        30.00R
BUTTE          LGT RAIN  46  44  93 W3        30.08R
BOZEMAN        LGT RAIN  47  45  93 NE3       30.05R

WESTERN MONTANA


CITY           SKY/WX    TMP DP  RH WIND       PRES   REMARKS
MISSOULA       CLOUDY    56  46  69 NE3       30.05R
KALISPELL      NOT AVBL

NORTH DAKOTA


CITY           SKY/WX    TMP DP  RH WIND       PRES   REMARKS
WILLISTON      CLOUDY    58  56  93 E13       30.00F
DICKINSON      LGT RAIN  57  57 100 E12       29.92F FOG
MINOT          CLOUDY    59  57  93 NE12      30.00F
BISMARCK       LGT RAIN  61  60  97 NE13      29.94F FOG

SOUTHERN SASKATCHEWAN


CITY           SKY/WX    TMP DP  RH WIND       PRES   REMARKS
REGINA         CLOUDY    63  52  67 E14G25    30.07F
ESTEVAN        CLOUDY    57  55  94 E14G22    30.05S
SWIFT CURRENT  MOCLDY    57  50  77 E9        30.03R




USA.gov is the U.S. government's official web portal to all federal, state and local government web resources and services.